Year,Month,Day,Hour,Minute,Value (Times are PST for temperature in C)
2012,08,16,08,34,20.50
2012,08,16,08,35,20.50
2012,08,16,08,36,20.50
2012,08,16,08,37,20.50
2012,08,16,08,38,20.50
2012,08,16,08,39,20.50
2012,08,16,08,40,20.60
2012,08,16,08,41,20.70
2012,08,16,08,42,20.80
2012,08,16,08,43,20.80
2012,08,16,08,44,20.90
2012,08,16,08,45,21.00
2012,08,16,08,46,21.10
2012,08,16,08,47,21.20
2012,08,16,08,48,21.30
2012,08,16,08,49,21.30
2012,08,16,08,50,21.40
2012,08,16,08,51,21.50
2012,08,16,08,52,21.60
2012,08,16,08,53,21.60
2012,08,16,08,54,21.60
2012,08,16,08,55,21.60
2012,08,16,08,56,21.70
2012,08,16,08,57,21.80
2012,08,16,08,58,21.90
2012,08,16,08,59,22.10
2012,08,16,09,00,22.20
2012,08,16,09,01,22.30
2012,08,16,09,02,22.50
2012,08,16,09,03,22.60
2012,08,16,09,04,22.80
2012,08,16,09,05,22.90
2012,08,16,09,06,22.90
2012,08,16,09,07,22.90
2012,08,16,09,08,23.00
2012,08,16,09,09,23.10
2012,08,16,09,10,23.10
2012,08,16,09,11,23.20
2012,08,16,09,12,23.20
2012,08,16,09,13,23.30
2012,08,16,09,14,23.30
2012,08,16,09,15,23.30
2012,08,16,09,16,23.30
2012,08,16,09,17,23.40
2012,08,16,09,18,23.40
2012,08,16,09,19,23.50
2012,08,16,09,20,23.50
2012,08,16,09,21,23.40
2012,08,16,09,22,23.40
2012,08,16,09,23,23.40
2012,08,16,09,24,23.40
2012,08,16,09,25,23.40
2012,08,16,09,26,23.40
2012,08,16,09,27,23.40
2012,08,16,09,28,23.40
2012,08,16,09,29,23.50
2012,08,16,09,30,23.60
2012,08,16,09,31,23.60
2012,08,16,09,32,23.60
2012,08,16,09,33,23.70
2012,08,16,09,34,23.70
2012,08,16,09,35,23.70
2012,08,16,09,36,23.70
2012,08,16,09,37,23.70
2012,08,16,09,38,23.70
2012,08,16,09,39,23.70
2012,08,16,09,40,23.70
2012,08,16,09,41,23.70
2012,08,16,09,42,23.70
2012,08,16,09,43,23.80
2012,08,16,09,44,23.80
2012,08,16,09,45,23.80
2012,08,16,09,46,23.80
2012,08,16,09,47,23.90
2012,08,16,09,48,23.90
2012,08,16,09,49,23.90
2012,08,16,09,50,24.10
2012,08,16,09,51,24.10
2012,08,16,09,52,24.10
2012,08,16,09,53,24.10
2012,08,16,09,54,24.10
2012,08,16,09,55,24.10
2012,08,16,09,56,24.20
2012,08,16,09,57,24.20
2012,08,16,09,58,24.30
2012,08,16,09,59,24.30
2012,08,16,10,00,24.30
2012,08,16,10,01,24.30
2012,08,16,10,02,24.30
2012,08,16,10,03,24.40
2012,08,16,10,04,24.40
2012,08,16,10,05,24.50
2012,08,16,10,06,24.50
2012,08,16,10,07,24.60
2012,08,16,10,08,24.60
2012,08,16,10,09,24.70
2012,08,16,10,10,24.70
2012,08,16,10,11,24.70
2012,08,16,10,12,24.70
2012,08,16,10,13,24.70
2012,08,16,10,14,24.70
2012,08,16,10,15,24.70
2012,08,16,10,16,24.60
2012,08,16,10,17,24.60
2012,08,16,10,18,24.70
2012,08,16,10,19,24.70
2012,08,16,10,20,24.70
2012,08,16,10,21,24.80
2012,08,16,10,22,24.80
2012,08,16,10,23,24.80
2012,08,16,10,24,24.80
2012,08,16,10,25,24.90
2012,08,16,10,26,25.00
2012,08,16,10,27,25.00
2012,08,16,10,28,25.10
2012,08,16,10,29,25.30
2012,08,16,10,30,25.40
2012,08,16,10,31,25.40
2012,08,16,10,32,25.50
2012,08,16,10,33,25.50
2012,08,16,10,34,25.60
2012,08,16,10,35,25.60
2012,08,16,10,36,25.50
2012,08,16,10,37,25.50
2012,08,16,10,38,25.40
2012,08,16,10,39,25.40
2012,08,16,10,40,25.30
2012,08,16,10,41,25.20
2012,08,16,10,42,25.20
2012,08,16,10,43,25.20
2012,08,16,10,44,25.20
2012,08,16,10,45,25.20
2012,08,16,10,46,25.30
2012,08,16,10,47,25.30
2012,08,16,10,48,25.20
2012,08,16,10,49,25.20
2012,08,16,10,50,25.20
2012,08,16,10,51,25.30
2012,08,16,10,52,25.30
2012,08,16,10,53,25.30
2012,08,16,10,54,25.40
2012,08,16,10,55,25.50
2012,08,16,10,56,25.60
2012,08,16,10,57,25.60
2012,08,16,10,58,25.60
2012,08,16,10,59,25.70
2012,08,16,11,00,25.70
2012,08,16,11,01,25.70
2012,08,16,11,02,25.60
2012,08,16,11,03,25.60
2012,08,16,11,04,25.60
2012,08,16,11,05,25.70
2012,08,16,11,06,25.70
2012,08,16,11,07,25.70
2012,08,16,11,08,25.80
2012,08,16,11,09,25.80
2012,08,16,11,10,25.80
2012,08,16,11,11,25.90
2012,08,16,11,12,26.00
2012,08,16,11,13,25.90
2012,08,16,11,14,25.90
2012,08,16,11,15,25.90
2012,08,16,11,16,26.00
2012,08,16,11,17,26.00
2012,08,16,11,18,25.90
2012,08,16,11,19,25.90
2012,08,16,11,20,25.90
2012,08,16,11,21,26.00
2012,08,16,11,22,26.00
2012,08,16,11,23,25.90
2012,08,16,11,24,25.90
2012,08,16,11,25,25.90
2012,08,16,11,26,25.90
2012,08,16,11,27,25.90
2012,08,16,11,28,26.00
2012,08,16,11,29,26.00
2012,08,16,11,30,26.00
2012,08,16,11,31,26.00
2012,08,16,11,32,26.10
2012,08,16,11,33,26.10
2012,08,16,11,34,26.20
2012,08,16,11,35,26.20
2012,08,16,11,36,26.20
2012,08,16,11,37,26.30
2012,08,16,11,38,26.30
2012,08,16,11,39,26.30
2012,08,16,11,40,26.20
2012,08,16,11,41,26.20
2012,08,16,11,42,26.20
2012,08,16,11,43,26.20
2012,08,16,11,44,26.20
2012,08,16,11,45,26.20
2012,08,16,11,46,26.20
2012,08,16,11,47,26.20
2012,08,16,11,48,26.20
2012,08,16,11,49,26.20
2012,08,16,11,50,26.20
2012,08,16,11,51,26.30
2012,08,16,11,52,26.30
2012,08,16,11,53,26.40
2012,08,16,11,54,26.40
2012,08,16,11,55,26.50
2012,08,16,11,56,26.60
2012,08,16,11,57,26.60
2012,08,16,11,58,26.60
2012,08,16,11,59,26.60
2012,08,16,12,00,26.60
2012,08,16,12,01,26.70
2012,08,16,12,02,26.70
2012,08,16,12,03,26.80
2012,08,16,12,04,26.80
2012,08,16,12,05,26.80
2012,08,16,12,06,26.90
2012,08,16,12,07,26.90
2012,08,16,12,08,26.90
2012,08,16,12,09,26.90
2012,08,16,12,10,26.80
2012,08,16,12,11,26.80
2012,08,16,12,12,26.80
2012,08,16,12,13,26.80
2012,08,16,12,14,26.80
2012,08,16,12,15,26.80
2012,08,16,12,16,26.90
2012,08,16,12,17,26.90
2012,08,16,12,18,26.90
2012,08,16,12,19,26.90
2012,08,16,12,20,26.80
2012,08,16,12,21,26.80
2012,08,16,12,22,26.80
2012,08,16,12,23,26.90
2012,08,16,12,24,26.90
2012,08,16,12,25,26.90
2012,08,16,12,26,27.10
2012,08,16,12,27,26.90
2012,08,16,12,28,26.90
2012,08,16,12,29,26.90
2012,08,16,12,30,26.90
2012,08,16,12,31,26.90
2012,08,16,12,32,27.00
2012,08,16,12,33,27.10
2012,08,16,12,34,27.20
2012,08,16,12,35,27.20
2012,08,16,12,36,27.20
2012,08,16,12,37,27.30
2012,08,16,12,38,27.30
2012,08,16,12,39,27.40
2012,08,16,12,40,27.60
2012,08,16,12,41,27.60
2012,08,16,12,42,27.50
2012,08,16,12,43,27.40
2012,08,16,12,44,27.40
2012,08,16,12,45,27.40
2012,08,16,12,46,27.30
2012,08,16,12,47,27.30
2012,08,16,12,48,27.30
2012,08,16,12,49,27.30
2012,08,16,12,50,27.30
2012,08,16,12,51,27.20
2012,08,16,12,52,27.20
2012,08,16,12,53,27.20
2012,08,16,12,54,27.30
2012,08,16,12,55,27.30
2012,08,16,12,56,27.30
2012,08,16,12,57,27.40
2012,08,16,12,58,27.40
2012,08,16,12,59,27.50
2012,08,16,13,00,27.60
2012,08,16,13,01,27.60
2012,08,16,13,02,27.60
2012,08,16,13,03,27.70
2012,08,16,13,04,27.70
2012,08,16,13,05,27.60
2012,08,16,13,06,27.60
2012,08,16,13,07,27.50
2012,08,16,13,08,27.40
2012,08,16,13,09,27.40
2012,08,16,13,10,27.40
2012,08,16,13,11,27.50
2012,08,16,13,12,27.60
2012,08,16,13,13,27.60
2012,08,16,13,14,27.60
2012,08,16,13,15,27.60
2012,08,16,13,16,27.60
2012,08,16,13,17,27.70
2012,08,16,13,18,27.80
2012,08,16,13,19,27.80
2012,08,16,13,20,27.90
2012,08,16,13,21,27.90
2012,08,16,13,22,27.90
2012,08,16,13,23,28.00
2012,08,16,13,24,28.00
2012,08,16,13,25,28.00
2012,08,16,13,26,28.00
2012,08,16,13,27,28.10
2012,08,16,13,28,28.10
2012,08,16,13,29,28.20
2012,08,16,13,30,28.20
2012,08,16,13,31,28.20
2012,08,16,13,32,28.20
2012,08,16,13,33,28.20
2012,08,16,13,34,28.20
2012,08,16,13,35,28.20
2012,08,16,13,36,28.20
2012,08,16,13,37,28.30
2012,08,16,13,38,28.40
2012,08,16,13,39,28.40
2012,08,16,13,40,28.40
2012,08,16,13,41,28.40
2012,08,16,13,42,28.50
2012,08,16,13,43,28.60
2012,08,16,13,44,28.60
2012,08,16,13,45,28.60
2012,08,16,13,46,28.60
2012,08,16,13,47,28.60
2012,08,16,13,48,28.70
2012,08,16,13,49,28.80
2012,08,16,13,50,28.90
2012,08,16,13,51,28.90
2012,08,16,13,52,28.90
2012,08,16,13,53,28.90
2012,08,16,13,54,28.90
2012,08,16,13,55,28.80
2012,08,16,13,56,28.80
2012,08,16,13,57,28.80
2012,08,16,13,58,28.90
2012,08,16,13,59,28.90
2012,08,16,14,00,28.90
2012,08,16,14,01,28.90
2012,08,16,14,02,28.90
2012,08,16,14,03,28.90
2012,08,16,14,04,28.80
2012,08,16,14,05,28.80
2012,08,16,14,06,28.80
2012,08,16,14,07,28.90
2012,08,16,14,08,28.90
2012,08,16,14,09,28.90
2012,08,16,14,10,28.90
2012,08,16,14,11,28.90
2012,08,16,14,12,28.90
2012,08,16,14,13,28.90
2012,08,16,14,14,28.80
2012,08,16,14,15,28.80
2012,08,16,14,16,28.80
2012,08,16,14,17,28.80
2012,08,16,14,18,28.80
2012,08,16,14,19,28.80
2012,08,16,14,20,28.80
2012,08,16,14,21,28.80
2012,08,16,14,22,28.80
2012,08,16,14,23,28.90
2012,08,16,14,24,28.90
2012,08,16,14,25,28.90
2012,08,16,14,26,28.90
2012,08,16,14,27,28.90
2012,08,16,14,28,28.90
2012,08,16,14,29,28.90
2012,08,16,14,30,28.90
2012,08,16,14,31,28.90
2012,08,16,14,32,28.90
2012,08,16,14,33,28.90
2012,08,16,14,34,28.90
2012,08,16,14,35,28.90
2012,08,16,14,36,28.90
2012,08,16,14,37,28.90
2012,08,16,14,38,28.90
2012,08,16,14,39,28.90
2012,08,16,14,40,28.90
2012,08,16,14,41,28.90
2012,08,16,14,42,28.80
2012,08,16,14,43,28.80
2012,08,16,14,44,28.90
2012,08,16,14,45,28.90
2012,08,16,14,46,28.90
2012,08,16,14,47,28.90
2012,08,16,14,48,28.90
2012,08,16,14,49,29.10
2012,08,16,14,50,29.20
2012,08,16,14,51,29.30
2012,08,16,14,52,29.30
2012,08,16,14,53,29.30
2012,08,16,14,54,29.20
2012,08,16,14,55,29.20
2012,08,16,14,56,29.10
2012,08,16,14,57,29.10
2012,08,16,14,58,29.10
2012,08,16,14,59,29.20
2012,08,16,15,00,29.10
2012,08,16,15,01,29.10
2012,08,16,15,02,29.10
2012,08,16,15,03,29.20
2012,08,16,15,04,29.20
2012,08,16,15,05,29.20
2012,08,16,15,06,29.20
2012,08,16,15,07,29.10
2012,08,16,15,08,29.10
2012,08,16,15,09,29.00
2012,08,16,15,10,28.90
2012,08,16,15,11,28.90
2012,08,16,15,12,28.90
2012,08,16,15,13,29.00
2012,08,16,15,14,29.10
2012,08,16,15,15,29.10
2012,08,16,15,16,29.20
2012,08,16,15,17,29.20
2012,08,16,15,18,29.30
2012,08,16,15,19,29.30
2012,08,16,15,20,29.30
2012,08,16,15,21,29.40
2012,08,16,15,22,29.40
2012,08,16,15,23,29.50
2012,08,16,15,24,29.50
2012,08,16,15,25,29.50
2012,08,16,15,26,29.50
2012,08,16,15,27,29.60
2012,08,16,15,28,29.50
2012,08,16,15,29,29.50
2012,08,16,15,30,29.50
2012,08,16,15,31,29.40
2012,08,16,15,32,29.40
2012,08,16,15,33,29.40
2012,08,16,15,34,29.40
2012,08,16,15,35,29.40
2012,08,16,15,36,29.50
2012,08,16,15,37,29.50
2012,08,16,15,38,29.50
2012,08,16,15,39,29.60
2012,08,16,15,40,29.60
2012,08,16,15,41,29.70
2012,08,16,15,42,29.70
2012,08,16,15,43,29.80
2012,08,16,15,44,29.80
2012,08,16,15,45,29.90
2012,08,16,15,46,30.00
2012,08,16,15,47,30.10
2012,08,16,15,48,30.20
2012,08,16,15,49,30.30
2012,08,16,15,50,30.30
2012,08,16,15,51,30.30
2012,08,16,15,52,30.30
2012,08,16,15,53,30.30
2012,08,16,15,54,30.20
2012,08,16,15,55,30.20
2012,08,16,15,56,30.10
2012,08,16,15,57,30.20
2012,08,16,15,58,30.20
2012,08,16,15,59,30.30
2012,08,16,16,00,30.20
2012,08,16,16,01,30.10
2012,08,16,16,02,30.10
2012,08,16,16,03,30.10
2012,08,16,16,04,30.10
2012,08,16,16,05,30.20
2012,08,16,16,06,30.10
2012,08,16,16,07,29.90
2012,08,16,16,08,29.80
2012,08,16,16,09,29.70
2012,08,16,16,10,29.60
2012,08,16,16,11,29.50
2012,08,16,16,12,29.50
2012,08,16,16,13,29.50
2012,08,16,16,14,29.40
2012,08,16,16,15,29.20
2012,08,16,16,16,29.10
2012,08,16,16,17,28.90
2012,08,16,16,18,28.80
2012,08,16,16,19,28.70
2012,08,16,16,20,28.70
2012,08,16,16,21,28.60
2012,08,16,16,22,28.60
2012,08,16,16,23,28.60
2012,08,16,16,24,28.60
2012,08,16,16,25,28.70
2012,08,16,16,26,28.70
2012,08,16,16,27,28.70
2012,08,16,16,28,28.70
2012,08,16,16,29,28.70
2012,08,16,16,30,28.70
2012,08,16,16,31,28.80
2012,08,16,16,32,28.80
2012,08,16,16,33,28.80
2012,08,16,16,34,28.90
2012,08,16,16,35,28.90
2012,08,16,16,36,28.90
2012,08,16,16,37,28.80
2012,08,16,16,38,28.80
2012,08,16,16,39,28.80
2012,08,16,16,40,28.80
2012,08,16,16,41,28.80
2012,08,16,16,42,28.70
2012,08,16,16,43,28.60
2012,08,16,16,44,28.40
2012,08,16,16,45,28.10
2012,08,16,16,46,28.00
2012,08,16,16,47,27.80
2012,08,16,16,48,27.50
2012,08,16,16,49,27.40
2012,08,16,16,50,27.30
2012,08,16,16,51,27.30
2012,08,16,16,52,27.20
2012,08,16,16,53,27.20
2012,08,16,16,54,27.10
2012,08,16,16,55,27.00
2012,08,16,16,56,26.90
2012,08,16,16,57,26.80
2012,08,16,16,58,26.60
2012,08,16,16,59,26.60
2012,08,16,17,00,26.60
2012,08,16,17,01,26.50
2012,08,16,17,02,26.40
2012,08,16,17,03,26.40
2012,08,16,17,04,26.40
2012,08,16,17,05,26.40
2012,08,16,17,06,26.50
2012,08,16,17,07,26.60
2012,08,16,17,08,26.60
2012,08,16,17,09,26.60
2012,08,16,17,10,26.60
2012,08,16,17,11,26.60
2012,08,16,17,12,26.60
2012,08,16,17,13,26.60
2012,08,16,17,14,26.60
2012,08,16,17,15,26.60
2012,08,16,17,16,26.60
2012,08,16,17,17,26.60
2012,08,16,17,18,26.60
2012,08,16,17,19,26.60
2012,08,16,17,20,26.60
2012,08,16,17,21,26.60
2012,08,16,17,22,26.50
2012,08,16,17,23,26.40
2012,08,16,17,24,26.30
2012,08,16,17,25,26.20
2012,08,16,17,26,26.10
2012,08,16,17,27,26.10
2012,08,16,17,28,26.00
2012,08,16,17,29,26.00
2012,08,16,17,30,26.00
2012,08,16,17,31,25.90
2012,08,16,17,32,25.90
2012,08,16,17,33,25.90
2012,08,16,17,34,25.80
2012,08,16,17,35,25.80
2012,08,16,17,36,25.80
2012,08,16,17,37,25.80
2012,08,16,17,38,25.80
2012,08,16,17,39,25.80
2012,08,16,17,40,25.80
2012,08,16,17,41,25.70
2012,08,16,17,42,25.70
2012,08,16,17,43,25.70
2012,08,16,17,44,25.70
2012,08,16,17,45,25.70
2012,08,16,17,46,25.70
2012,08,16,17,47,25.70
2012,08,16,17,48,25.70
2012,08,16,17,49,25.70
2012,08,16,17,50,25.70
2012,08,16,17,51,25.60
2012,08,16,17,52,25.60
2012,08,16,17,53,25.50
2012,08,16,17,54,25.50
2012,08,16,17,55,25.40
2012,08,16,17,56,25.40
2012,08,16,17,57,25.40
2012,08,16,17,58,25.40
2012,08,16,17,59,25.40
2012,08,16,18,00,25.40
2012,08,16,18,01,25.40
2012,08,16,18,02,25.40
2012,08,16,18,03,25.30
2012,08,16,18,04,25.30
2012,08,16,18,05,25.30
2012,08,16,18,06,25.20
2012,08,16,18,07,25.20
2012,08,16,18,08,25.20
2012,08,16,18,09,25.10
2012,08,16,18,10,25.00
2012,08,16,18,11,25.00
2012,08,16,18,12,24.90
2012,08,16,18,13,24.90
2012,08,16,18,14,24.80
2012,08,16,18,15,24.80
2012,08,16,18,16,24.70
2012,08,16,18,17,24.70
2012,08,16,18,18,24.70
2012,08,16,18,19,24.70
2012,08,16,18,20,24.70
2012,08,16,18,21,24.60
2012,08,16,18,22,24.60
2012,08,16,18,23,24.60
2012,08,16,18,24,24.60
2012,08,16,18,25,24.50
2012,08,16,18,26,24.50
2012,08,16,18,27,24.50
2012,08,16,18,28,24.50
2012,08,16,18,29,24.50
2012,08,16,18,30,24.50
2012,08,16,18,31,24.60
2012,08,16,18,32,24.60
2012,08,16,18,33,24.60
2012,08,16,18,34,24.70
2012,08,16,18,35,24.70
2012,08,16,18,36,24.70
2012,08,16,18,37,24.80
2012,08,16,18,38,24.80
2012,08,16,18,39,24.80
2012,08,16,18,40,24.80
2012,08,16,18,41,24.80
2012,08,16,18,42,24.90
2012,08,16,18,43,24.90
2012,08,16,18,44,24.90
2012,08,16,18,45,24.90
2012,08,16,18,46,25.00
2012,08,16,18,47,25.00
2012,08,16,18,48,25.00
2012,08,16,18,49,25.00
2012,08,16,18,50,25.00
2012,08,16,18,51,25.00
2012,08,16,18,52,25.00
2012,08,16,18,53,25.00
2012,08,16,18,54,25.00
2012,08,16,18,55,25.00
2012,08,16,18,56,25.00
2012,08,16,18,57,25.00
2012,08,16,18,58,25.00
2012,08,16,18,59,25.00
2012,08,16,19,00,25.00
2012,08,16,19,01,25.00
2012,08,16,19,02,25.00
2012,08,16,19,03,25.00
2012,08,16,19,04,24.90
2012,08,16,19,05,24.90
2012,08,16,19,06,24.90
2012,08,16,19,07,24.90
2012,08,16,19,08,24.90
2012,08,16,19,09,24.90
2012,08,16,19,10,24.90
2012,08,16,19,11,24.80
2012,08,16,19,12,24.80
2012,08,16,19,13,24.80
2012,08,16,19,14,24.90
2012,08,16,19,15,24.90
2012,08,16,19,16,24.80
2012,08,16,19,17,24.80
2012,08,16,19,18,24.80
2012,08,16,19,19,24.80
2012,08,16,19,20,24.80
2012,08,16,19,21,24.70
2012,08,16,19,22,24.70
2012,08,16,19,23,24.70
2012,08,16,19,24,24.70
2012,08,16,19,25,24.60
2012,08,16,19,26,24.60
2012,08,16,19,27,24.60
2012,08,16,19,28,24.60
2012,08,16,19,29,24.50
2012,08,16,19,30,24.50
2012,08,16,19,31,24.50
2012,08,16,19,32,24.50
2012,08,16,19,33,24.50
2012,08,16,19,34,24.50
2012,08,16,19,35,24.60
2012,08,16,19,36,24.60
2012,08,16,19,37,24.60
2012,08,16,19,38,24.60
2012,08,16,19,39,24.60
2012,08,16,19,40,24.60
2012,08,16,19,41,24.60
2012,08,16,19,42,24.60
2012,08,16,19,43,24.70
2012,08,16,19,44,24.70
2012,08,16,19,45,24.70
2012,08,16,19,46,24.80
2012,08,16,19,47,24.80
2012,08,16,19,48,24.80
2012,08,16,19,49,24.90
2012,08,16,19,50,24.90
2012,08,16,19,51,24.90
2012,08,16,19,52,24.90
2012,08,16,19,53,24.90
2012,08,16,19,54,24.90
2012,08,16,19,55,24.90
2012,08,16,19,56,24.90
2012,08,16,19,57,24.90
2012,08,16,19,58,24.90
2012,08,16,19,59,24.90
2012,08,16,20,00,24.90
2012,08,16,20,01,24.90
2012,08,16,20,02,24.90
2012,08,16,20,03,24.90
2012,08,16,20,04,24.90
2012,08,16,20,05,24.90
2012,08,16,20,06,24.80
2012,08,16,20,07,24.80
2012,08,16,20,08,24.80
2012,08,16,20,09,24.80
2012,08,16,20,10,24.80
2012,08,16,20,11,24.80
2012,08,16,20,12,24.80
2012,08,16,20,13,24.80
2012,08,16,20,14,24.80
2012,08,16,20,15,24.80
2012,08,16,20,16,24.80
2012,08,16,20,17,24.80
2012,08,16,20,18,24.80
2012,08,16,20,19,24.80
2012,08,16,20,20,24.80
2012,08,16,20,21,24.80
